This is the latest recevied weather packets stored in our database for station/object OH2HCY. If no packets are shown the sender has not sent any weather packets the latest 10 day(s).
| Time | Temp. | Humidity | Pressure | Rain* | Wind** | Luminosity | Snow |
|---|---|---|---|---|---|---|---|
| 1777981440 | 10.56° C | 40% | 1000.4 hPa | - | - | - | - |
| 1777980895 | 10.56° C | 43% | 1000.4 hPa | - | - | - | - |
| 1777980360 | 10.56° C | 43% | 1000.2 hPa | - | - | - | - |
| 1777979850 | 11.11° C | 41% | 1000.1 hPa | - | - | - | - |
| 1777979334 | 11.11° C | 41% | 999.9 hPa | - | - | - | - |
| 1777978805 | 11.11° C | 40% | 999.8 hPa | - | - | - | - |
| 1777978310 | 11.67° C | 40% | 999.5 hPa | - | - | - | - |
| 1777977795 | 11.11° C | 43% | 999.4 hPa | - | - | - | - |
| 1777977253 | 11.11° C | 43% | 999.4 hPa | - | - | - | - |
| 1777976690 | 11.11° C | 44% | 999.1 hPa | - | - | - | - |
| 1777976185 | 11.67° C | 44% | 999 hPa | - | - | - | - |
| 1777975675 | 11.11° C | 45% | 998.9 hPa | - | - | - | - |
| 1777975110 | 11.11° C | 47% | 998.7 hPa | - | - | - | - |
| 1777974570 | 11.67° C | 41% | 998.3 hPa | - | - | - | - |
| 1777974021 | 11.11° C | 47% | 998.4 hPa | - | - | - | - |
| 1777973490 | 11.67° C | 48% | 998.1 hPa | - | - | - | - |
| 1777972980 | 12.22° C | 50% | 997.9 hPa | - | - | - | - |
| 1777972444 | 11.67° C | 52% | 998 hPa | - | - | - | - |
| 1777971935 | 11.67° C | 51% | 998 hPa | - | - | - | - |
| 1777971390 | 11.67° C | 50% | 997.5 hPa | - | - | - | - |
| 1777970843 | 12.22° C | 46% | 997.4 hPa | - | - | - | - |
| 1777970300 | 12.22° C | 48% | 997.5 hPa | - | - | - | - |
| 1777969760 | 11.11° C | 49% | 997.8 hPa | - | - | - | - |
| 1777969225 | 11.11° C | 50% | 997.7 hPa | - | - | - | - |
| 1777968669 | 11.11° C | 50% | 997.6 hPa | - | - | - | - |
* Rain since midnight (hover to see other rain measurements)
** Current wind speed in m/s (hover to see current wind gust speed)